Probability
0 23 65 58 42 23 16 13 13 10 19 32 39 42 58 55 48 35 19 10 6 6 0 0 0 0 0 0 0 0 0 0 0 0 0 0 0 0 0 0 0 0 0
0 29 71 71 48 26 13 13 13 13 23 42 39 42 48 52 35 26 16 16 3 0 0 0 0 0 0 0 0 0 0 0 0 0 0 0 0 0 0 0 0 0 0
6 29 45 77 55 19 19 10 10 13 19 32 48 45 39 32 29 19 16 3 0 0 0 0 0 0 0 0 0 0 0 0 0 0 0 0 0 0 0 0 0 0 0
6 23 19 68 45 23 16 13 10 13 16 29 42 42 32 29 13 13 3 3 0 0 0 0 0 0 0 0 0 0 0 0 0 0 0 0 0 0 0 0 0 0 0
10 23 35 74 45 26 16 16 13 13 13 19 39 35 29 16 13 3 3 0 0 0 0 0 0 0 0 0 0 0 0 0 0 0 0 0 0 0 0 0 0 0 0
16 26 48 77 45 35 19 13 13 10 10 16 19 23 13 10 6 0 0 0 0 0 0 0 0 0 0 0 0 0 0 0 0 0 0 0 0 0 0 0 0 0 0
26 23 45 68 48 29 19 16 13 10 6 6 10 3 10 3 0 0 0 0 0 0 0 0 0 0 0 0 0 0 0 0 0 0 0 0 0 0 0 0 0 0 0
32 29 23 55 55 39 29 19 10 3 3 3 6 3 3 0 0 0 0 0 0 0 0 0 0 0 0 0 0 0 0 0 0 0 0 0 0 0 0 0 0 0 0
29 26 26 10 3 19 19 19 10 6 6 3 6 6 0 0 0 0 0 0 0 0 0 0 0 0 0 0 0 0 0 0 0 0 0 0 0 0 0 0 0 0 0
39 23 13 10 0 3 3 3 6 3 6 0 0 0 0 0 0 0 0 0 0 0 0 0 0 0 0 0 0 0 0 0 0 0 0 0 0 0 0 0 0 0 0
16 19 13 10 0 3 3 0 0 0 0 0 0 0 0 0 0 0 0 0 0 0 0 0 0 0 0 0 0 0 0 0 0 0 0 0 0 0 0 0 0 0 0
13 13 10 6 0 3 3 3 0 3 3 3 0 0 0 0 0 0 0 0 0 0 0 0 0 0 0 0 0 0 0 0 0 0 0 0 0 0 0 0 0 0 0
13 6 10 6 0 3 3 3 10 3 10 6 0 0 0 0 0 0 0 0 0 0 0 0 0 0 0 0 0 0 0 0 0 0 0 0 0 0 0 0 0 0 0
10 3 10 6 10 6 0 0 3 0 10 3 3 0 0 0 0 0 0 0 0 0 0 0 0 0 0 0 0 0 0 0 0 0 0 0 0 0 0 0 0 0 0
10 3 10 6 6 3 0 3 6 0 0 0 0 0 0 0 0 0 0 0 0 0 0 0 0 0 0 0 0 0 0 0 0 0 0 0 0 0 0 0 0 0 0
6 6 6 6 6 6 3 3 6 3 0 0 0 0 0 0 0 0 0 0 0 0 0 0 0 0 0 0 0 0 0 0 0 0 0 0 0 0 0 0 0 0 0
3 3 0 3 0 0 6 3 0 6 3 0 0 0 0 0 0 0 0 0 0 0 0 0 0 0 0 0 0 0 0 0 0 0 0 0 0 0 0 0 0 0 0
0 3 6 0 3 3 6 6 3 3 3 3 3 0 0 0 0 0 0 0 0 0 0 0 0 0 0 0 0 0 0 0 0 0 0 0 0 0 0 0 0 0 0
0 3 3 3 0 3 3 3 6 3 6 6 6 3 0 0 0 0 0 0 0 0 0 0 0 0 0 0 0 0 0 0 0 0 0 0 0 0 0 0 0 0 0
0 0 3 3 3 3 6 6 6 6 3 3 3 3 0 0 0 0 0 0 0 0 0 0 0 0 0 0 0 0 0 0 0 0 0 0 0 0 0 0 0 0 0
0 3 3 3 3 3 3 3 3 3 6 0 0 0 0 0 0 0 0 0 0 0 0 0 0 0 0 0 0 0 0 0 0 0 0 0 0 0 0 0 0 0 0
0 0 3 3 3 3 3 6 6 3 6 3 3 0 0 0 0 0 0 0 0 0 0 0 0 0 0 0 0 0 0 0 0 0 0 0 0 0 0 0 0 0 0
0 0 0 0 0 0 6 6 6 6 3 0 0 0 0 0 0 0 0 0 0 0 0 0 0 0 0 0 0 0 0 0 0 0 0 0 0 0 0 0 0 0 0
0 0 0 0 0 0 3 3 3 0 0 0 0 0 0 0 0 0 0 0 0 0 0 0 0 0 0 0 0 0 0 0 0 0 0 0 0 0 0 0 0 0 0
0 0 0 0 0 0 0 0 0 0 0 0 0 0 0 0 0 0 0 0 0 0 0 0 0 0 0 0 0 0 0 0 0 0 0 0 0 0 0 0 0 0 0
0 0 0 0 0 0 0 0 0 0 0 0 0 0 0 0 0 0 0 0 0 0 0 0 0 0 0 0 0 0 0 0 0 0 0 0 0 0 0 0 0 0 0
Height
5865 5868 5871 5873 5875 5877 5878 5879 5880 5881 5882 5882 5882 5883 5883 5883 5883 5883 5883 5883 5883 5883 5882 5882 5882 5881 5881 5880 5879 5879 5878 5878 5877 5877 5877 5876 5876 5875 5874 5873 5872 5870 5868
5860 5864 5866 5869 5871 5873 5875 5876 5877 5878 5879 5880 5880 5881 5881 5881 5881 5881 5882 5881 5881 5881 5881 5881 5880 5880 5879 5879 5878 5878 5877 5877 5877 5876 5876 5875 5875 5874 5873 5872 5871 5869 5868
5855 5858 5861 5864 5867 5869 5871 5873 5874 5875 5876 5877 5878 5878 5879 5879 5879 5880 5880 5880 5880 5880 5880 5879 5879 5879 5878 5878 5877 5877 5876 5876 5876 5875 5875 5874 5874 5873 5872 5871 5870 5868 5867
5849 5853 5856 5859 5862 5865 5867 5869 5871 5872 5873 5874 5875 5876 5876 5877 5877 5878 5878 5878 5878 5878 5878 5878 5878 5877 5877 5876 5876 5875 5875 5875 5875 5874 5874 5873 5872 5872 5871 5870 5868 5867 5865
5843 5847 5850 5854 5858 5860 5863 5865 5867 5869 5870 5871 5872 5873 5874 5874 5875 5875 5876 5876 5876 5876 5876 5876 5876 5876 5875 5875 5874 5874 5874 5874 5873 5873 5872 5872 5871 5870 5869 5868 5867 5866 5864
5836 5840 5845 5849 5852 5855 5858 5861 5863 5865 5866 5867 5869 5870 5871 5871 5872 5873 5873 5874 5874 5874 5874 5874 5874 5874 5874 5873 5873 5873 5872 5872 5872 5871 5871 5870 5870 5869 5868 5867 5866 5864 5862
5829 5834 5839 5843 5847 5850 5853 5856 5858 5860 5862 5864 5865 5866 5867 5868 5869 5870 5871 5871 5872 5872 5872 5872 5872 5872 5872 5872 5871 5871 5871 5870 5870 5870 5869 5869 5868 5867 5866 5865 5864 5862 5861
5822 5827 5832 5836 5840 5844 5848 5850 5853 5856 5858 5859 5861 5862 5864 5865 5866 5867 5868 5868 5869 5869 5870 5870 5870 5870 5870 5870 5869 5869 5869 5869 5868 5868 5867 5867 5866 5865 5864 5863 5862 5860 5858
5815 5820 5825 5830 5834 5838 5842 5845 5848 5851 5853 5855 5857 5858 5860 5861 5862 5864 5864 5865 5866 5866 5867 5867 5867 5868 5868 5867 5867 5867 5867 5867 5866 5866 5865 5865 5864 5863 5862 5861 5859 5858 5856
5806 5812 5817 5822 5827 5831 5835 5839 5842 5845 5848 5850 5852 5854 5856 5857 5858 5860 5861 5862 5862 5863 5864 5864 5865 5865 5865 5865 5865 5865 5864 5864 5864 5863 5863 5862 5861 5860 5859 5858 5857 5855 5853
5798 5804 5809 5814 5819 5824 5829 5833 5836 5839 5842 5845 5847 5849 5851 5852 5854 5855 5857 5858 5859 5859 5860 5861 5862 5862 5862 5862 5862 5862 5862 5861 5861 5861 5860 5859 5858 5857 5856 5855 5853 5851 5849
5789 5795 5800 5806 5811 5817 5822 5826 5830 5833 5837 5839 5842 5844 5846 5848 5849 5851 5852 5853 5855 5856 5856 5857 5858 5858 5859 5859 5859 5859 5859 5858 5858 5857 5857 5856 5855 5854 5853 5851 5850 5848 5846
5779 5785 5791 5797 5803 5809 5814 5819 5823 5827 5830 5833 5836 5838 5840 5842 5844 5846 5847 5849 5850 5851 5852 5853 5854 5854 5855 5855 5855 5855 5855 5855 5854 5854 5853 5853 5852 5850 5849 5847 5846 5844 5842
5770 5776 5782 5788 5795 5801 5807 5812 5816 5820 5824 5827 5830 5833 5835 5837 5839 5841 5843 5844 5845 5847 5848 5848 5849 5850 5850 5851 5851 5851 5851 5851 5850 5850 5849 5848 5847 5846 5844 5843 5841 5839 5837
5763 5769 5774 5780 5787 5793 5799 5804 5809 5813 5817 5820 5824 5826 5829 5831 5833 5835 5837 5839 5840 5841 5843 5844 5844 5845 5846 5846 5846 5847 5847 5846 5846 5845 5845 5844 5843 5841 5840 5838 5836 5834 5832
5755 5761 5767 5772 5778 5785 5791 5797 5802 5806 5810 5814 5817 5820 5823 5825 5828 5830 5832 5833 5835 5836 5837 5838 5839 5840 5841 5841 5841 5842 5842 5841 5841 5840 5840 5839 5838 5836 5835 5833 5831 5829 5826
5748 5754 5760 5765 5771 5777 5783 5789 5794 5799 5803 5807 5810 5813 5816 5819 5821 5824 5826 5827 5829 5830 5831 5832 5833 5834 5835 5835 5836 5836 5836 5836 5835 5834 5834 5833 5832 5830 5829 5827 5825 5823 5820
5743 5749 5754 5759 5764 5770 5776 5782 5787 5791 5795 5799 5803 5806 5809 5812 5815 5817 5819 5821 5822 5824 5825 5826 5827 5828 5829 5829 5829 5830 5830 5829 5829 5828 5827 5826 5825 5824 5822 5820 5818 5816 5814
5738 5743 5748 5753 5758 5763 5769 5774 5779 5784 5788 5792 5795 5799 5802 5805 5807 5810 5812 5814 5816 5817 5818 5820 5821 5821 5822 5823 5823 5823 5823 5823 5822 5821 5820 5819 5818 5817 5815 5813 5811 5809 5807
5733 5738 5743 5748 5753 5757 5762 5767 5772 5776 5781 5785 5788 5792 5794 5797 5800 5803 5805 5807 5809 5810 5811 5813 5814 5814 5815 5815 5816 5816 5816 5815 5815 5814 5813 5812 5811 5810 5808 5806 5804 5802 5799
5728 5732 5737 5743 5748 5752 5757 5761 5765 5770 5774 5778 5782 5785 5787 5790 5793 5796 5798 5799 5801 5803 5804 5805 5806 5807 5807 5808 5808 5809 5809 5808 5807 5807 5806 5805 5803 5802 5800 5798 5796 5794 5792
5724 5728 5733 5739 5743 5747 5752 5756 5760 5764 5767 5771 5775 5778 5780 5783 5786 5788 5790 5792 5793 5795 5796 5798 5798 5799 5800 5800 5801 5801 5801 5801 5800 5799 5798 5797 5795 5794 5792 5790 5788 5786 5784
5719 5724 5728 5733 5738 5742 5747 5751 5754 5758 5761 5765 5768 5771 5773 5775 5778 5780 5782 5784 5786 5787 5789 5790 5791 5792 5792 5793 5793 5794 5793 5793 5793 5792 5790 5788 5787 5785 5784 5782 5780 5777 5775
5715 5719 5723 5727 5732 5737 5741 5745 5749 5752 5755 5758 5761 5763 5765 5767 5769 5772 5774 5776 5778 5779 5780 5782 5783 5783 5784 5785 5785 5785 5785 5785 5784 5784 5783 5781 5779 5777 5776 5773 5771 5769 5766
5710 5714 5719 5723 5726 5731 5735 5739 5743 5746 5748 5750 5753 5755 5758 5760 5762 5764 5766 5768 5769 5771 5772 5773 5774 5775 5776 5776 5777 5777 5776 5776 5775 5775 5775 5773 5771 5769 5767 5765 5762 5760 5757
5706 5710 5714 5717 5721 5725 5729 5732 5736 5738 5741 5743 5745 5748 5750 5752 5754 5756 5758 5760 5761 5762 5763 5764 5766 5766 5767 5767 5768 5768 5767 5767 5766 5766 5765 5764 5762 5760 5757 5755 5752 5750 5748
Wind_Speed
38 34 31 28 25 23 21 19 17 16 15 14 13 12 11 10 9 7 6 6 5 5 5 5 5 6 6 5 5 4 3 3 3 3 3 3 4 6 8 9 10 12 14
39 36 33 30 27 25 23 21 19 17 16 15 14 13 12 11 10 9 7 7 6 6 5 5 5 6 6 6 5 4 4 3 3 3 4 4 5 6 8 9 11 12 14
40 38 35 32 30 27 25 23 21 19 18 17 16 15 14 13 11 10 9 8 7 7 6 6 6 6 6 6 5 5 4 4 4 4 5 5 6 7 8 10 12 13 15
42 39 37 34 32 29 27 25 23 21 20 19 18 17 16 15 13 12 10 9 8 8 7 6 6 6 6 6 5 5 5 5 5 5 5 6 7 8 9 10 12 14 16
43 41 39 36 34 31 29 27 25 23 22 21 19 19 17 16 15 13 12 11 9 9 8 7 7 7 6 6 6 5 5 5 5 6 6 7 8 9 10 11 13 14 16
45 43 41 38 36 33 31 29 27 25 24 23 21 20 19 18 17 15 14 12 11 10 9 8 8 7 7 6 6 6 5 6 6 6 7 8 8 9 10 12 13 15 16
47 45 43 40 38 35 33 31 29 27 26 25 23 22 21 20 19 17 16 14 13 12 11 10 9 8 7 7 7 6 6 6 7 7 8 9 9 10 12 13 14 16 17
49 47 45 43 40 38 35 33 31 29 28 27 25 24 23 22 21 20 18 16 15 14 12 11 10 9 8 8 7 7 7 7 8 8 9 10 11 12 13 14 15 17 18
51 49 48 45 43 40 37 35 33 31 30 29 27 26 25 24 23 21 20 18 17 15 14 13 12 11 10 9 9 9 9 9 9 10 10 11 12 13 14 15 17 18 19
52 51 49 48 45 42 40 37 35 33 31 30 29 28 27 26 24 23 22 20 19 17 16 15 14 13 12 11 11 10 10 10 11 11 12 12 13 14 15 17 18 19 20
53 53 52 51 48 45 42 39 37 35 33 32 31 30 29 27 26 25 23 22 21 19 18 17 15 15 14 13 13 12 12 12 13 13 14 14 15 16 17 19 20 21 22
53 54 55 53 50 47 44 41 39 37 35 34 33 32 31 29 28 26 25 24 23 21 20 19 18 17 16 16 15 15 14 14 15 15 16 16 17 18 19 21 22 22 23
54 55 55 55 52 49 46 44 41 39 38 36 35 34 32 31 29 28 27 26 24 23 22 21 20 19 19 18 18 17 17 17 17 18 18 19 20 21 22 23 24 25 25
53 54 54 53 51 50 48 46 44 42 40 38 37 36 34 33 32 30 29 27 26 25 24 23 22 22 21 21 20 20 20 20 20 20 21 22 23 23 24 25 26 27 28
52 52 53 52 52 51 49 48 46 44 42 41 39 38 36 35 33 32 30 29 28 27 27 26 25 24 24 23 23 23 22 22 23 23 24 24 25 26 26 27 28 29 29
50 49 52 53 52 52 50 49 47 46 44 43 41 40 38 37 35 34 32 31 31 30 29 28 28 27 26 26 26 25 25 25 25 26 26 26 27 28 28 29 30 31 31
50 48 51 53 52 51 51 51 49 48 46 45 44 42 40 39 37 36 35 34 33 32 31 30 30 29 29 28 28 28 28 28 28 29 29 29 30 30 30 31 32 32 33
44 45 47 50 52 53 52 52 51 50 49 47 46 44 42 41 39 38 37 36 35 34 33 32 31 31 31 31 30 30 30 31 31 31 32 32 32 33 33 33 34 34 35
40 42 44 48 50 52 52 52 51 50 50 49 48 46 44 43 41 40 39 38 37 36 35 34 34 33 33 33 33 32 32 33 33 34 34 34 34 34 35 35 35 36 37
35 37 40 45 48 50 50 50 50 50 49 48 48 47 45 44 43 42 41 40 38 38 37 36 35 35 35 34 34 34 34 34 34 35 35 35 36 36 36 36 36 37 39
31 33 37 40 46 48 48 48 50 50 48 47 46 45 45 44 44 44 43 42 40 39 38 37 37 36 36 35 34 34 35 35 35 36 36 36 37 37 37 37 38 39 40
30 31 33 38 43 45 46 44 44 45 45 46 47 46 44 44 44 44 44 42 41 41 39 39 38 37 36 36 35 35 35 35 35 35 36 37 38 38 38 39 40 41 42
28 28 29 31 36 40 41 40 39 41 43 44 45 46 45 45 44 44 44 43 42 41 40 39 38 37 37 36 36 36 36 36 36 36 37 38 39 39 40 41 42 43 43
27 26 27 28 29 33 37 38 36 37 41 43 44 45 44 44 43 43 43 42 42 42 41 39 38 38 37 37 37 38 37 37 36 36 37 38 39 40 41 42 43 43 44
25 25 25 26 27 29 31 34 36 35 36 38 40 42 42 42 42 41 41 40 39 39 38 38 38 38 37 37 37 37 37 37 38 39 39 40 40 41 42 43 44 44 44
24 23 23 24 27 28 30 31 33 34 34 35 36 37 38 39 39 39 39 39 38 37 37 37 37 36 37 38 38 38 38 39 40 40 41 41 42 43 44 44 44 45 45
Wind_Direction
232 231 232 232 233 234 234 233 232 232 232 233 235 236 238 240 240 242 249 259 269 278 289 299 308 314 316 316 318 318 317 313 310 314 322 330 335 340 343 346 348 348 349
232 231 231 231 231 232 232 232 231 231 232 234 236 237 238 239 239 242 247 253 264 272 282 292 301 307 309 311 311 309 307 305 303 307 315 319 324 330 334 338 341 342 343
230 230 230 230 230 229 231 232 230 230 231 233 235 236 237 237 238 241 245 251 259 267 275 286 297 303 304 305 305 301 297 297 298 302 307 310 315 322 327 332 336 338 339
229 229 228 229 228 228 229 230 229 229 231 232 234 236 237 237 237 239 242 248 254 261 269 279 290 297 298 298 297 295 291 292 296 300 302 305 310 317 323 328 331 334 336
227 227 227 227 227 227 227 229 229 229 230 232 234 236 237 237 238 239 242 246 251 257 264 272 282 290 292 292 291 289 287 287 293 296 298 301 306 313 318 323 327 330 332
226 226 226 226 226 226 226 227 228 228 229 231 234 235 236 237 238 240 242 246 249 253 259 267 274 280 284 286 286 284 283 285 288 291 295 299 303 308 314 318 322 326 328
224 225 225 225 225 225 225 226 227 228 229 231 232 234 235 237 238 240 242 245 248 251 256 261 266 271 275 278 279 280 281 282 283 287 291 295 299 304 310 314 318 322 324
223 224 225 225 225 225 225 225 226 228 229 231 232 233 235 237 238 239 242 244 247 250 253 257 260 264 268 269 271 275 278 279 281 285 288 292 298 303 307 311 314 318 321
221 223 225 225 225 225 224 225 226 227 229 231 232 232 234 236 237 239 241 243 245 248 251 255 256 260 263 263 264 268 273 275 278 281 285 290 295 300 303 307 311 314 317
220 221 224 225 224 224 224 224 225 227 229 230 231 232 234 235 237 238 239 241 243 245 249 252 254 256 258 259 260 262 266 270 273 277 282 287 292 296 300 305 308 310 313
219 220 222 224 223 223 223 224 225 226 228 230 231 232 233 235 236 237 238 240 242 243 246 249 252 254 256 258 259 260 263 267 271 275 280 285 289 294 298 301 304 306 310
218 219 221 222 222 222 222 223 224 226 228 230 231 231 232 233 234 236 237 238 241 243 245 247 249 252 255 257 259 261 263 266 270 275 279 283 287 291 295 298 300 303 307
216 218 219 220 220 221 221 223 224 225 227 229 230 231 231 233 234 235 237 238 240 242 244 246 247 250 253 256 258 261 264 267 270 274 278 282 286 289 292 295 298 301 304
213 214 215 216 219 220 221 222 223 224 226 228 229 230 231 232 234 235 236 238 240 242 244 245 247 249 252 256 258 260 263 267 270 273 277 280 284 287 290 293 296 299 302
214 212 214 214 217 219 220 222 222 223 225 227 228 229 231 232 234 235 237 238 241 242 244 245 247 249 252 256 258 260 263 266 269 273 277 280 283 286 289 292 295 298 301
211 212 212 212 213 216 218 220 222 224 225 226 227 229 230 231 234 236 238 240 241 243 244 246 248 251 254 256 258 261 264 267 270 273 277 280 283 286 290 292 295 297 298
214 212 211 212 211 214 216 218 221 222 223 226 228 229 230 231 233 236 238 240 242 244 246 247 249 252 254 257 259 261 264 267 270 273 276 279 283 286 289 291 294 295 297
216 214 213 212 212 215 216 217 219 221 222 224 226 228 229 231 234 236 238 241 243 245 247 248 250 253 255 258 260 263 265 268 271 274 277 280 283 286 289 291 293 294 296
216 214 213 214 214 214 216 218 220 222 223 224 226 228 230 231 234 236 239 241 242 245 247 249 252 254 257 259 262 264 267 269 272 274 277 280 283 286 289 291 291 293 296
216 216 216 215 215 216 216 218 220 222 225 226 228 230 231 233 235 238 239 241 243 246 248 250 252 255 258 260 263 265 267 270 272 275 278 281 283 286 289 290 291 292 295
213 214 215 214 215 216 216 218 220 222 223 225 228 230 232 234 235 238 240 241 243 246 249 251 253 255 258 260 263 265 268 270 273 276 279 282 283 286 288 289 290 292 295
211 211 210 213 215 216 216 217 219 222 225 228 229 231 234 235 237 240 242 243 244 246 249 251 253 256 258 261 264 267 269 271 273 276 279 282 285 287 288 289 290 293 295
210 208 207 210 215 217 218 219 221 223 227 229 232 234 236 236 238 240 241 242 244 247 249 252 254 257 259 262 265 267 269 271 273 277 280 282 284 286 288 289 290 292 294
213 213 211 212 217 221 223 224 226 227 230 232 233 234 235 237 238 240 242 244 247 247 249 252 255 258 260 263 265 268 270 272 274 277 279 282 284 285 286 287 289 290 292
216 219 220 220 222 222 223 224 226 229 232 232 233 235 238 240 241 243 246 246 247 249 252 254 257 259 262 265 267 269 271 273 276 279 280 281 283 284 286 287 288 289 290
224 227 228 230 229 227 228 230 231 233 234 235 236 238 241 241 244 246 246 247 250 253 254 256 258 262 265 267 269 270 272 275 278 280 281 283 284 286 287 289 289 289 289